Date,TemperatureHighF,TemperatureAvgF,TemperatureLowF,DewpointHighF,DewpointAvgF,DewpointLowF,HumidityHigh,HumidityAvg,HumidityLow,PressureMaxIn,PressureMinIn,WindSpeedMaxMPH,WindSpeedAvgMPH,GustSpeedMaxMPH,PrecipitationSumIn
2014-1-1,18.7,8.8,-0.6,9.2,5.1,-2.6,93,85,65,30.20,29.95,14,2,0,0.00
2014-1-2,10.0,4.0,-1.8,6.9,1.0,-4.8,90,87,83,30.18,29.71,8,4,0,0.00
2014-1-3,1.9,-2.3,-12.6,-1.6,-7.0,-16.3,90,80,67,30.17,29.63,12,4,0,0.00
2014-1-4,16.3,1.7,-15.7,8.2,-3.4,-18.6,89,79,62,30.23,30.03,7,2,0,0.00
2014-1-5,32.5,19.5,2.5,27.3,15.2,0.7,97,84,63,30.13,29.80,11,2,0,0.00
2014-1-6,43.3,32.5,21.0,43.0,30.0,14.2,99,90,69,29.78,29.14,12,4,0,1.37
2014-1-7,20.3,6.0,0.0,16.5,-3.6,-9.3,85,64,51,29.91,29.30,11,5,0,0.00
2014-1-8,15.4,6.1,-1.8,4.3,-1.0,-7.6,89,73,54,30.23,29.91,10,2,0,0.00
2014-1-9,21.2,9.1,0.5,8.5,4.0,-1.7,92,80,54,30.46,30.19,14,1,0,0.00
2014-1-10,33.8,19.0,0.1,28.0,16.3,-2.1,96,89,78,30.38,30.11,3,0,0,0.00
2014-1-11,47.1,34.3,24.8,46.8,33.7,23.3,99,98,94,30.11,29.06,5,2,0,1.53
2014-1-12,45.0,36.8,31.3,44.7,30.0,24.5,99,77,64,29.78,29.12,11,3,0,0.02
2014-1-13,43.2,35.1,25.5,34.0,28.2,23.0,90,76,55,29.93,29.71,5,1,0,0.00
2014-1-14,40.1,35.8,33.8,37.1,34.1,31.3,99,94,79,29.70,29.52,6,0,0,0.77
2014-1-15,41.2,32.8,27.1,34.9,30.8,26.6,99,93,70,29.84,29.62,4,1,0,0.00
2014-1-16,32.5,30.7,29.1,31.5,29.1,27.0,99,94,90,29.79,29.72,7,2,0,0.00
2014-1-17,35.6,28.7,21.9,29.1,25.5,19.7,97,88,65,29.80,29.73,5,1,0,0.02
2014-1-18,33.4,27.0,19.8,28.7,24.5,18.1,95,90,78,29.76,29.50,5,1,0,0.00
2014-1-19,27.5,26.2,23.0,26.5,22.0,18.4,96,84,73,29.54,29.30,9,3,0,0.00
2014-1-20,33.8,25.3,5.7,28.4,20.2,1.2,86,81,74,29.71,29.29,17,3,0,0.01
2014-1-21,6.1,2.0,-2.0,0.4,-6.1,-8.3,79,68,54,29.87,29.71,11,5,0,0.00
2014-1-22,7.9,-1.0,-8.0,-4.5,-9.4,-14.6,75,67,54,29.73,29.50,18,6,0,0.00
2014-1-23,13.1,2.6,-6.3,-1.2,-6.0,-11.5,80,67,49,29.92,29.71,11,3,0,0.00
2014-1-24,10.4,2.6,-8.0,-0.4,-5.7,-10.8,87,69,44,30.03,29.74,12,3,0,0.00
2014-1-25,24.6,17.0,9.0,19.0,9.5,-0.4,91,73,51,29.73,29.10,11,4,0,0.00
2014-1-26,17.8,10.5,2.7,14.9,-0.4,-9.1,89,62,41,29.61,29.10,16,4,0,0.00
2014-1-27,35.6,19.0,10.2,28.5,9.7,-2.3,86,68,43,29.78,29.28,11,4,0,0.00
2014-1-28,12.7,5.8,0.5,-1.4,-4.9,-7.8,82,62,42,30.06,29.78,10,2,0,0.00
2014-1-29,17.6,7.7,-4.9,-0.2,-4.4,-8.1,89,60,32,30.01,29.71,10,2,0,0.00
2014-1-30,23.2,10.6,0.0,10.4,3.8,-2.5,90,74,51,30.21,29.93,5,1,0,0.00
2014-1-31,34.3,24.5,15.6,20.9,15.0,7.4,86,68,47,30.02,29.80,13,2,0,0.00
2014-2-1,38.8,28.1,16.5,30.3,23.3,14.8,95,83,58,30.18,29.84,7,1,0,0.00
2014-2-2,42.4,35.0,29.1,35.7,31.6,27.7,99,87,76,29.93,29.69,7,1,0,0.10
2014-2-3,32.5,25.1,12.7,27.3,18.1,11.1,94,75,63,30.13,29.94,11,4,0,0.00
2014-2-4,31.8,18.8,5.4,18.0,11.7,3.1,95,75,49,30.28,30.12,8,1,0,0.01
2014-2-5,23.5,21.2,18.5,19.8,17.2,13.2,91,85,65,30.15,29.55,11,4,0,0.00
2014-2-6,22.8,9.8,-6.0,15.5,4.6,-8.6,91,80,53,30.08,29.79,9,2,0,0.00
2014-2-7,23.2,10.3,-6.3,13.7,2.7,-9.1,92,72,53,30.01,29.93,14,2,0,0.00
2014-2-8,22.8,14.6,4.8,9.3,4.4,-1.9,80,64,47,30.08,29.96,9,2,0,0.00
2014-2-9,26.4,17.7,10.0,17.1,11.3,5.9,92,76,54,29.99,29.75,7,1,0,0.00
2014-2-10,23.0,12.3,-2.4,16.8,7.3,-5.3,94,81,54,30.00,29.71,14,2,0,0.00
2014-2-11,17.6,3.7,-12.3,7.3,-2.7,-15.7,88,75,55,30.27,30.00,13,2,0,0.00
2014-2-12,23.7,5.6,-7.2,8.6,-1.6,-10.0,88,73,41,30.39,30.21,6,1,0,0.00
2014-2-13,32.4,19.8,0.3,30.7,16.3,-3.1,95,86,65,30.20,28.97,12,4,0,0.00
2014-2-14,32.4,26.9,20.5,30.9,23.4,18.3,94,87,75,29.52,28.73,14,4,0,0.00
2014-2-15,35.8,25.3,16.2,27.4,21.7,14.3,94,87,66,29.67,29.41,15,2,0,0.00
2014-2-16,23.7,17.4,10.0,19.9,7.7,-1.8,86,66,51,29.81,29.42,17,6,0,0.00
2014-2-17,21.0,8.2,-7.6,-0.2,-3.8,-10.4,87,60,36,30.20,29.82,13,4,0,0.00
2014-2-18,19.9,11.2,-12.5,17.9,7.0,-16.4,92,83,58,30.15,29.81,10,2,0,0.00
2014-2-19,27.5,18.3,0.1,24.4,15.8,-2.8,95,90,82,29.91,29.60,9,2,0,0.00
2014-2-20,44.6,32.6,20.7,31.4,27.1,19.1,98,82,49,30.06,29.69,7,1,0,0.67
2014-2-21,34.2,32.5,27.9,33.2,31.5,27.7,99,96,94,29.99,29.57,16,6,0,1.55
2014-2-22,44.6,34.8,25.0,29.5,25.2,17.3,99,71,40,29.77,29.64,13,2,0,0.01
2014-2-23,45.5,35.7,25.9,29.1,23.4,16.1,88,63,35,29.80,29.62,11,2,0,0.00
2014-2-24,30.7,23.6,13.5,21.4,11.8,7.1,75,61,46,29.74,29.57,16,4,0,0.00
2014-2-25,21.0,14.5,7.7,10.0,5.6,1.5,87,68,50,29.75,29.68,14,3,0,0.00
2014-2-26,21.0,9.8,0.5,13.7,2.2,-4.3,91,72,45,29.71,29.57,15,3,0,0.00
2014-2-27,21.9,11.3,2.1,13.4,2.3,-3.9,85,68,46,29.68,29.37,11,2,0,0.00
2014-2-28,16.7,4.3,-9.2,-5.0,-8.5,-12.9,84,57,32,30.23,29.69,12,3,0,0.00
2014-3-1,28.4,13.9,-6.9,15.8,3.1,-9.7,87,64,37,30.24,29.88,10,2,0,0.00
2014-3-2,28.6,23.5,14.4,22.1,15.6,6.1,85,72,61,29.90,29.83,12,4,0,0.00
2014-3-3,16.5,8.7,-2.6,5.9,-1.4,-7.7,87,65,40,30.09,29.85,16,3,0,0.00
2014-3-4,25.7,9.2,-10.1,9.9,-1.7,-13.1,87,65,27,30.16,30.05,7,2,0,0.00
2014-3-5,24.6,15.6,6.3,15.6,9.4,-5.7,87,76,56,30.35,30.07,10,2,0,0.00
2014-3-6,27.3,9.3,-6.7,7.2,-4.2,-13.9,85,57,23,30.48,30.33,7,2,0,0.00
2014-3-7,35.6,13.8,-9.0,17.5,4.4,-12.3,88,70,30,30.32,29.80,10,2,0,0.00
2014-3-8,43.9,26.6,10.0,27.5,18.9,7.7,94,74,49,29.79,29.58,14,4,0,0.00
2014-3-9,32.0,23.8,17.2,15.0,10.6,5.0,78,58,33,29.79,29.69,15,4,0,0.00
2014-3-10,37.6,28.6,21.0,29.1,22.7,11.9,93,79,62,29.68,29.43,6,1,0,0.04
2014-3-11,48.9,35.8,25.0,35.5,29.1,23.5,95,79,45,29.58,29.32,12,2,0,0.18
2014-3-12,34.3,30.9,21.9,32.4,29.1,19.7,96,93,90,29.58,28.96,17,3,0,1.86
2014-3-13,21.2,11.8,4.8,19.0,6.7,-0.5,92,80,68,29.73,28.94,21,7,0,0.00
2014-3-14,30.9,17.9,-0.8,20.9,9.6,-3.2,89,70,54,29.94,29.69,8,2,0,0.00
2014-3-15,46.4,37.4,29.8,33.7,28.3,21.1,79,69,59,29.72,29.49,12,4,0,0.40
2014-3-16,29.7,20.0,7.5,21.4,8.1,-1.8,84,60,42,30.05,29.70,19,5,0,0.00
2014-3-17,23.5,12.2,1.9,1.6,-2.5,-6.3,74,53,34,30.03,29.89,12,3,0,0.00
2014-3-18,35.6,17.9,-0.6,17.8,5.4,-3.3,88,61,25,30.18,29.99,6,1,0,0.00
2014-3-19,36.3,25.9,12.4,28.4,19.4,8.3,94,77,57,30.21,29.82,15,6,0,0.00
2014-3-20,41.4,33.9,28.8,35.7,29.9,25.6,97,86,65,29.82,29.46,13,4,0,0.44
2014-3-21,36.1,31.3,23.7,25.7,22.5,18.4,83,70,55,29.84,29.54,19,3,0,0.00
2014-3-22,40.5,28.9,16.2,32.2,22.6,13.8,91,78,60,29.88,29.49,10,2,0,0.01
2014-3-23,30.7,25.7,10.9,24.3,14.5,-0.6,81,63,42,29.95,29.75,19,5,0,0.00
2014-3-24,24.3,14.0,4.8,3.9,0.1,-2.7,83,55,37,29.98,29.87,17,4,0,0.00
2014-3-25,31.3,15.9,-2.6,14.0,6.0,-5.5,90,68,36,29.94,29.80,8,1,0,0.00
2014-3-26,27.1,22.0,14.9,15.2,10.2,0.9,79,61,42,29.86,29.56,25,8,0,0.01
2014-3-27,36.5,24.2,11.7,20.7,6.6,-0.6,71,48,27,30.15,29.85,20,3,0,0.00
2014-3-28,41.2,35.7,28.4,40.3,31.0,15.5,99,84,48,30.03,29.77,5,2,0,0.44
2014-3-29,47.7,39.2,34.9,39.4,35.3,32.6,99,86,64,30.13,29.89,12,4,0,0.30
2014-3-30,38.7,35.2,33.1,36.6,33.4,31.3,95,93,88,29.89,29.56,22,8,0,1.68
2014-3-31,35.1,32.1,28.6,31.3,27.6,25.2,93,84,76,29.95,29.61,20,11,0,0.24
2014-4-1,48.9,35.5,26.4,32.7,27.3,22.0,87,73,47,29.98,29.88,17,4,0,0.00
2014-4-2,51.6,36.2,25.9,35.2,29.9,24.4,96,79,49,29.97,29.87,6,1,0,0.00
2014-4-3,43.9,35.2,26.2,26.4,24.8,22.8,93,67,46,30.03,29.92,13,4,0,0.00
2014-4-4,42.6,33.2,23.0,30.8,26.6,20.8,92,78,56,30.03,29.76,16,6,0,0.36
2014-4-5,41.2,35.8,32.4,32.0,27.5,24.8,93,72,63,29.78,29.56,12,5,0,0.05
2014-4-6,47.5,36.0,28.6,27.7,23.3,18.5,85,62,33,30.05,29.77,13,3,0,0.00
2014-4-7,49.8,38.8,27.0,33.0,28.4,24.2,90,68,40,30.09,29.79,10,3,0,0.03
2014-4-8,49.6,41.4,36.7,46.7,39.3,32.2,99,92,81,29.78,29.15,14,4,0,0.63
2014-4-9,44.1,37.8,28.2,36.8,26.7,13.7,95,67,33,29.82,29.36,21,4,0,0.00
2014-4-10,57.0,40.8,23.0,30.7,24.5,18.0,87,56,28,29.97,29.78,9,2,0,0.00
2014-4-11,62.4,47.8,36.0,41.1,34.7,27.8,98,65,30,29.92,29.76,14,2,0,0.08
2014-4-12,60.3,43.0,29.5,39.5,33.3,29.3,99,74,37,30.11,29.90,9,2,0,0.01
2014-4-13,43.2,38.5,34.5,39.6,35.0,30.7,96,87,69,30.17,29.89,11,3,0,0.36
2014-4-14,70.0,51.9,33.8,56.9,45.6,33.5,99,81,57,29.90,29.65,12,3,0,0.00
2014-4-15,56.5,50.5,33.1,55.0,48.1,31.8,98,92,81,29.72,29.36,9,3,0,0.79
2014-4-16,32.7,27.1,21.4,31.7,21.3,17.3,96,79,55,30.49,29.63,14,4,0,0.00
2014-4-17,41.4,30.3,18.7,26.3,21.0,16.3,91,70,43,30.69,30.50,13,4,0,0.15
2014-4-18,42.6,33.4,22.5,32.3,26.8,20.3,92,77,58,30.54,30.12,10,3,0,0.00
2014-4-19,51.1,39.0,27.5,37.5,29.9,25.5,93,71,51,30.33,30.02,17,4,0,0.00
2014-4-20,55.0,39.3,25.9,32.0,27.1,21.8,91,65,29,30.40,30.19,5,1,0,0.00
2014-4-21,68.0,48.7,32.7,38.6,31.8,27.7,84,56,24,30.19,29.70,8,2,0,0.00
2014-4-22,66.4,52.7,40.8,50.6,40.5,30.1,95,66,35,29.70,29.33,5,0,0,0.15
2014-4-23,48.4,43.2,39.4,47.3,39.0,32.0,99,85,72,29.53,29.31,16,4,0,0.03
2014-4-24,47.7,41.3,33.6,31.7,27.0,22.4,71,57,45,29.83,29.53,25,9,0,0.00
2014-4-25,57.7,44.5,28.9,37.2,29.2,21.0,86,58,30,29.90,29.67,12,2,0,0.00
2014-4-26,48.0,40.6,37.8,39.3,37.4,33.9,97,89,58,29.73,29.64,10,4,0,0.95
2014-4-27,45.1,39.7,34.7,39.5,36.3,33.4,95,88,75,29.97,29.72,11,3,0,0.28
2014-4-28,53.6,45.2,35.6,42.2,37.5,33.2,91,75,59,30.13,29.91,17,5,0,0.00
2014-4-29,46.4,41.4,37.6,38.8,35.8,33.1,92,81,67,30.41,30.13,19,9,0,0.01
2014-4-30,39.9,37.9,36.3,37.2,35.6,33.7,95,91,89,30.42,30.06,14,9,0,0.83
2014-5-1,58.6,45.7,37.2,53.7,43.6,36.1,98,93,80,30.05,29.53,11,3,0,0.49
2014-5-2,57.7,49.4,39.4,44.2,41.1,37.5,94,74,56,29.70,29.53,14,3,0,0.00
2014-5-3,59.4,49.1,39.6,47.2,42.4,36.3,95,79,52,29.73,29.59,8,1,0,0.07
2014-5-4,51.1,46.5,42.1,45.8,41.3,38.5,97,83,64,29.59,29.38,10,3,0,0.11
2014-5-5,53.2,47.9,42.8,42.9,41.4,38.3,92,79,66,29.77,29.52,21,5,0,0.00
2014-5-6,55.0,46.9,37.4,40.6,33.9,27.8,92,63,35,29.95,29.73,19,4,0,0.00
2014-5-7,61.5,47.1,32.2,35.7,30.9,27.1,89,58,28,30.09,29.95,14,4,0,0.00
2014-5-8,68.2,52.2,34.3,47.0,35.3,26.6,89,58,22,30.10,29.94,8,1,0,0.00
2014-5-9,54.0,48.1,45.5,45.6,41.4,34.6,97,78,55,30.15,29.96,9,5,0,0.04
2014-5-10,75.7,58.9,46.2,62.4,51.2,42.8,98,79,46,29.95,29.59,11,2,0,0.10
2014-5-11,70.2,61.1,53.1,44.2,39.4,33.7,71,47,29,29.93,29.69,16,3,0,0.00
2014-5-12,77.5,63.6,43.9,48.2,43.6,39.9,89,52,29,30.00,29.86,14,2,0,0.00
2014-5-13,59.4,49.5,47.7,48.1,44.4,42.0,90,83,66,30.21,30.00,12,6,0,0.03
2014-5-14,70.7,56.3,45.9,51.6,46.5,41.8,89,71,43,30.21,30.08,9,4,0,0.00
2014-5-15,70.2,59.8,51.4,62.6,55.4,47.7,93,86,76,30.18,30.04,10,3,0,0.00
2014-5-16,62.2,60.6,58.8,60.6,59.1,56.8,99,95,88,30.06,29.82,17,8,0,0.21
2014-5-17,65.1,57.8,45.7,60.9,49.9,40.8,98,77,42,29.99,29.67,16,4,0,2.42
2014-5-18,63.5,52.4,42.1,42.5,37.7,32.3,92,61,33,30.05,29.92,13,4,0,0.00
2014-5-19,58.8,51.8,41.7,45.4,39.2,34.3,87,63,44,30.02,29.92,18,4,0,0.00
2014-5-20,68.0,57.3,42.4,45.7,42.2,38.4,94,61,35,29.96,29.81,14,4,0,0.00
2014-5-21,71.2,58.1,41.5,55.0,47.4,39.9,95,71,38,29.92,29.75,10,2,0,0.00
2014-5-22,59.2,54.7,50.0,55.1,52.2,48.3,97,91,83,29.82,29.74,8,2,0,0.99
2014-5-23,54.7,52.9,50.5,53.5,52.0,49.3,99,97,94,29.89,29.75,9,4,0,0.74
2014-5-24,63.7,54.4,48.7,55.7,51.7,47.6,97,91,71,29.96,29.87,7,1,0,0.36
2014-5-25,72.1,59.5,48.2,57.0,51.8,47.4,98,78,46,29.97,29.84,9,1,0,0.00
2014-5-26,71.2,61.7,51.3,61.4,54.9,49.3,95,80,57,29.88,29.67,11,2,0,0.02
2014-5-27,70.0,55.8,46.2,61.8,53.2,45.1,99,92,72,29.86,29.72,13,4,0,0.59
2014-5-28,51.8,47.5,44.4,48.7,46.1,43.1,98,95,88,30.13,29.84,9,4,0,0.07
2014-5-29,66.0,53.7,41.0,50.1,44.7,39.2,99,75,40,30.16,29.99,7,2,0,0.00
2014-5-30,67.8,55.5,48.4,57.3,50.0,46.5,98,83,51,30.02,29.88,12,2,0,0.32
2014-5-31,64.0,53.9,46.4,56.0,50.7,45.6,98,90,65,30.23,29.98,11,2,0,0.02
2014-6-1,73.4,59.1,44.1,56.9,47.8,34.8,97,71,25,30.27,30.10,8,1,0,0.00
2014-6-2,81.5,65.4,48.9,62.2,53.6,45.8,92,69,35,30.11,29.86,6,1,0,0.00
2014-6-3,78.3,66.7,55.2,65.0,59.3,54.1,96,78,57,29.91,29.74,15,5,0,0.37
2014-6-4,70.9,61.0,55.8,63.3,57.1,52.7,95,87,75,29.78,29.63,8,3,0,0.01
2014-6-5,65.7,59.4,55.9,60.4,57.2,54.8,97,92,80,29.67,29.56,7,2,0,0.43
2014-6-6,67.6,60.2,54.1,58.4,55.4,52.6,97,85,66,29.81,29.62,14,3,0,0.07
2014-6-7,76.3,64.8,52.7,59.8,55.9,51.2,96,75,50,29.86,29.78,16,3,0,0.00
2014-6-8,80.4,66.6,51.6,64.4,57.7,50.5,97,76,41,29.87,29.74,7,1,0,0.20
2014-6-9,78.6,68.2,60.4,67.2,61.1,57.5,92,79,56,29.88,29.79,7,1,0,0.00
2014-6-10,77.7,66.5,60.4,67.1,60.5,56.3,91,82,62,30.02,29.82,8,2,0,0.00
2014-6-11,67.1,60.2,52.5,58.3,55.2,50.8,95,84,64,30.08,30.02,9,3,0,0.10
2014-6-12,60.6,57.4,54.1,58.5,55.6,52.1,97,93,89,30.08,29.97,10,4,0,0.63
2014-6-13,59.2,57.5,56.5,58.3,56.8,55.7,99,98,96,29.97,29.72,14,5,0,1.12
2014-6-14,68.0,60.4,54.1,60.9,57.2,51.2,99,90,69,29.84,29.69,12,2,0,0.29
2014-6-15,69.8,61.1,54.1,58.0,54.0,50.7,91,78,59,30.00,29.83,15,4,0,0.00
2014-6-16,77.9,64.6,49.1,59.4,51.9,43.0,95,68,32,30.06,29.89,8,1,0,0.00
2014-6-17,84.4,70.9,58.5,67.9,61.5,56.2,92,74,40,29.95,29.67,6,1,0,0.00
2014-6-18,74.8,69.5,64.8,68.5,63.9,60.1,96,83,64,29.85,29.57,10,3,0,0.69
2014-6-19,73.6,65.9,57.9,60.9,53.7,43.7,92,67,38,29.90,29.82,17,3,0,0.02
2014-6-20,65.5,58.9,48.7,50.4,46.7,42.7,89,65,45,29.91,29.80,17,4,0,0.07
2014-6-21,67.1,57.6,46.0,50.6,47.5,44.4,95,72,49,29.89,29.78,13,3,0,0.00
2014-6-22,75.7,61.7,47.8,59.1,51.4,45.5,94,72,40,29.94,29.83,9,2,0,0.00
2014-6-23,77.7,66.4,51.4,63.5,57.5,50.0,95,75,53,30.02,29.94,7,1,0,0.00
2014-6-24,75.9,69.6,61.7,64.8,61.4,58.3,89,76,64,30.03,29.85,7,2,0,0.00
2014-6-25,78.6,69.6,64.6,70.8,65.2,59.1,98,86,74,29.85,29.75,6,2,0,2.69
2014-6-26,73.4,67.8,60.8,67.6,65.4,59.6,98,92,81,29.93,29.70,14,3,0,0.39
2014-6-27,76.1,66.7,57.9,65.7,60.8,56.8,97,83,59,30.12,29.93,6,1,0,0.00
2014-6-28,85.1,69.2,55.2,66.2,58.2,52.6,97,72,34,30.19,30.12,5,1,0,0.00
2014-6-29,83.7,71.7,58.3,67.4,62.2,54.3,95,74,47,30.17,29.95,6,1,0,0.00
2014-6-30,82.2,74.0,63.7,71.1,66.4,60.7,90,78,62,29.98,29.78,7,2,0,0.00
2014-7-1,86.7,77.4,66.6,74.6,70.3,64.2,93,80,63,29.82,29.62,7,3,0,0.00
2014-7-2,90.9,75.5,68.5,76.0,70.8,66.7,97,86,62,29.82,29.68,5,2,0,1.61
2014-7-3,86.0,73.2,65.3,76.0,69.3,64.4,98,89,57,29.89,29.74,9,2,0,0.81
2014-7-4,69.1,65.9,59.7,67.1,64.4,57.7,97,95,92,29.91,29.77,14,3,0,0.96
2014-7-5,75.9,65.9,57.4,57.7,53.1,46.1,94,65,47,29.89,29.74,24,6,0,0.05
2014-7-6,78.3,68.5,57.6,59.4,55.1,50.5,88,64,40,29.91,29.73,12,3,0,0.00
2014-7-7,81.3,71.1,60.6,71.9,64.6,57.6,96,81,59,29.75,29.54,6,1,0,0.30
2014-7-8,83.3,74.9,65.1,73.2,69.8,64.2,98,85,69,29.65,29.49,7,2,0,0.01
2014-7-9,81.1,71.3,63.0,70.4,64.4,61.2,94,80,55,29.83,29.52,10,3,0,0.21
2014-7-10,75.2,66.4,57.4,63.8,58.3,54.3,96,77,51,30.08,29.83,9,1,0,0.00
2014-7-11,76.8,66.4,54.3,61.2,57.1,52.3,94,74,50,30.15,30.06,4,1,0,0.00
2014-7-12,82.8,70.2,55.6,67.7,61.5,53.6,94,76,55,30.14,29.97,7,1,0,0.00
2014-7-13,80.2,72.7,67.1,71.2,67.1,61.4,94,83,69,29.98,29.74,8,3,0,0.31
2014-7-14,84.6,75.5,67.5,71.4,68.9,66.1,97,81,58,29.79,29.69,6,2,0,0.00
2014-7-15,82.2,74.8,69.6,73.1,69.7,65.9,95,84,70,29.74,29.61,7,1,0,0.33
2014-7-16,77.5,69.1,62.8,68.5,65.6,59.2,96,89,70,29.77,29.64,7,1,0,1.17
2014-7-17,75.4,65.5,57.6,61.6,58.1,55.3,93,79,52,29.99,29.77,10,2,0,0.02
2014-7-18,76.8,65.5,54.9,60.8,56.7,53.2,95,76,50,30.16,29.99,10,2,0,0.01
2014-7-19,75.6,67.1,56.5,64.3,60.2,54.2,93,80,57,30.20,30.11,5,1,0,0.00
2014-7-20,75.9,66.9,61.3,63.5,60.3,55.1,96,81,50,30.14,30.04,7,2,0,0.00
2014-7-21,80.8,69.1,57.2,65.8,60.7,55.1,93,76,54,30.12,30.00,6,1,0,0.00
2014-7-22,84.7,74.4,63.3,72.7,66.9,60.6,92,79,57,30.06,29.86,7,1,0,0.00
2014-7-23,87.3,75.4,67.5,75.4,69.9,65.7,97,84,64,29.86,29.58,15,2,0,1.83
2014-7-24,72.7,66.5,55.9,66.6,59.9,52.9,96,80,60,29.83,29.67,13,4,0,0.32
2014-7-25,77.5,65.3,53.2,63.7,57.3,50.6,92,77,56,29.89,29.80,7,1,0,0.00
2014-7-26,76.6,67.5,57.6,63.5,59.4,55.3,93,77,51,29.88,29.73,7,2,0,0.00
2014-7-27,76.6,68.1,59.7,70.7,64.7,57.1,95,89,80,29.78,29.53,10,1,0,0.93
2014-7-28,76.5,67.7,61.3,70.9,65.8,59.6,97,94,82,29.56,29.32,10,2,0,1.59
2014-7-29,69.8,63.3,56.5,59.6,56.5,52.6,95,80,56,29.85,29.45,14,3,0,0.00
2014-7-30,73.2,62.7,55.0,60.2,56.7,52.7,93,82,55,29.94,29.85,5,0,0,0.00
2014-7-31,72.7,63.9,56.1,65.4,59.2,54.0,93,85,68,30.06,29.93,5,1,0,0.02
2014-8-1,80.8,69.5,57.6,69.0,63.5,55.6,96,82,59,30.12,30.04,5,1,0,0.02
2014-8-2,76.5,69.1,61.9,67.4,63.6,58.9,92,83,62,30.13,30.02,9,2,0,0.02
2014-8-3,78.4,68.2,58.1,67.5,62.8,55.8,93,83,66,30.04,29.92,7,2,0,0.00
2014-8-4,80.2,69.5,62.2,69.1,64.4,60.1,94,85,63,29.95,29.88,7,1,0,0.00
2014-8-5,81.9,70.3,61.9,70.5,64.4,60.2,95,83,59,29.95,29.78,7,1,0,0.07
2014-8-6,75.0,67.4,57.2,64.9,60.1,53.7,94,79,52,29.81,29.69,12,3,0,0.09
2014-8-7,69.1,60.0,54.3,61.8,55.9,51.4,96,87,68,29.87,29.77,12,2,0,1.11
2014-8-8,73.9,64.7,54.3,61.3,57.9,52.6,95,80,58,29.96,29.86,12,2,0,0.01
2014-8-9,77.9,66.7,55.9,62.1,57.8,53.6,93,75,44,30.03,29.94,12,2,0,0.00
2014-8-10,81.1,69.0,56.5,66.0,59.8,54.2,93,75,43,30.06,29.97,6,0,0,0.00
2014-8-11,82.6,70.3,59.0,68.5,62.4,56.7,93,78,49,30.07,29.96,6,1,0,0.00
2014-8-12,77.2,69.4,61.0,65.3,62.5,58.7,92,80,61,30.02,29.91,14,4,0,0.00
2014-8-13,66.9,63.7,60.3,64.0,61.5,58.3,96,93,89,29.90,29.56,15,7,0,4.32
2014-8-14,67.8,61.2,52.3,59.8,54.5,49.5,95,80,58,29.76,29.57,9,2,0,0.01
2014-8-15,64.6,58.5,52.2,55.6,53.3,49.4,91,83,71,29.80,29.74,10,2,0,0.00
2014-8-16,72.7,62.3,53.8,58.1,55.0,50.8,91,78,57,29.83,29.78,12,2,0,0.01
2014-8-17,68.2,61.9,56.8,61.4,57.4,53.9,92,85,72,29.78,29.70,17,2,0,0.03
2014-8-18,67.3,60.8,52.2,57.2,53.6,49.2,91,78,58,29.80,29.69,18,3,0,0.00
2014-8-19,71.4,60.6,49.3,58.5,52.6,46.5,93,77,51,29.86,29.77,8,1,0,0.00
2014-8-20,79.5,66.6,52.5,63.5,58.1,50.2,92,76,53,29.96,29.86,5,1,0,0.00
2014-8-21,68.4,62.4,56.3,61.6,57.9,53.9,94,85,75,30.02,29.95,5,1,0,0.79
2014-8-22,65.8,60.9,56.8,62.5,58.6,54.8,95,92,89,30.04,30.00,5,2,0,1.65
2014-8-23,73.0,64.6,56.7,62.3,58.1,53.7,93,81,53,30.05,30.00,7,1,0,0.00
2014-8-24,77.4,65.4,55.0,64.8,58.4,53.0,93,80,51,30.07,29.99,7,1,0,0.00
2014-8-25,81.1,68.2,57.0,66.6,60.5,55.2,94,78,49,30.09,29.98,8,1,0,0.00
2014-8-26,82.4,69.7,58.6,67.8,62.2,56.6,93,79,54,30.07,29.91,8,1,0,0.00
2014-8-27,81.9,71.9,62.8,71.2,65.7,60.1,92,81,66,29.91,29.72,10,2,0,0.00
2014-8-28,70.0,64.2,55.8,62.6,56.2,50.8,91,76,54,29.92,29.72,15,3,0,0.02
2014-8-29,77.0,62.0,51.8,61.7,55.2,49.0,93,80,53,30.15,29.93,8,1,0,0.00
2014-8-30,76.1,65.4,54.9,62.4,58.2,52.9,93,79,59,30.17,29.99,7,2,0,0.00
2014-8-31,77.5,69.7,63.5,71.1,66.1,59.6,96,89,78,30.00,29.83,5,1,0,1.37
2014-9-1,82.4,71.5,64.4,71.3,67.0,62.3,96,86,61,29.89,29.79,5,1,0,0.01
2014-9-2,82.8,72.0,63.5,73.6,68.4,61.7,96,89,73,29.84,29.57,6,1,0,0.04
2014-9-3,75.2,68.0,59.5,68.6,61.6,56.5,95,81,57,30.00,29.61,13,1,0,0.45
2014-9-4,80.1,67.5,54.9,67.9,60.4,52.9,93,80,48,30.09,29.98,5,0,0,0.00
2014-9-5,84.9,73.4,61.5,72.9,67.0,59.5,94,81,62,30.06,29.84,8,1,0,0.00
2014-9-6,82.0,71.9,61.7,73.4,67.6,60.3,95,87,68,29.83,29.61,10,2,0,0.21
2014-9-7,69.8,62.0,54.7,60.5,54.7,50.4,95,79,52,30.13,29.83,12,3,0,0.01
2014-9-8,72.5,61.9,51.1,57.9,53.6,48.9,92,76,53,30.29,30.14,7,2,0,0.00
2014-9-9,66.6,58.7,49.5,56.7,52.3,47.0,93,80,62,30.30,30.12,7,2,0,0.00
2014-9-10,67.3,60.4,55.4,60.0,56.1,51.9,93,86,75,30.12,29.92,6,2,0,0.00
2014-9-11,70.2,63.7,58.6,66.8,60.8,55.0,94,90,84,29.92,29.63,7,3,0,0.01
2014-9-12,60.1,53.9,46.4,55.6,48.1,42.4,88,81,70,30.17,29.80,15,6,0,0.00
2014-9-13,54.7,51.1,44.8,53.1,47.9,41.7,95,89,79,30.20,30.01,8,3,0,0.37
2014-9-14,56.7,49.5,41.5,51.8,44.7,38.8,95,84,67,30.16,30.02,12,3,0,0.00
2014-9-15,64.4,51.0,39.6,48.5,43.5,37.2,93,77,47,30.14,29.97,7,1,0,0.00
2014-9-16,63.1,54.2,49.5,55.9,50.9,47.3,93,89,75,29.99,29.83,5,0,0,0.29
2014-9-17,64.6,53.9,44.1,51.6,47.5,42.5,95,81,51,29.92,29.82,5,1,0,0.00
2014-9-18,63.9,52.4,43.2,53.5,47.0,39.3,95,82,64,30.06,29.82,10,2,0,0.00
2014-9-19,57.4,46.7,36.3,41.8,36.4,28.8,93,70,40,30.28,30.07,8,3,0,0.00
2014-9-20,66.7,54.2,40.5,59.2,49.6,37.8,92,84,72,30.27,29.93,7,2,0,0.00
2014-9-21,73.8,65.7,57.7,67.2,61.9,54.2,95,88,77,29.93,29.43,6,1,0,0.00
2014-9-22,64.9,58.0,45.1,63.4,49.9,39.4,96,75,50,29.98,29.40,14,4,0,0.00
2014-9-23,66.2,53.8,42.3,51.3,45.3,38.7,90,74,48,30.34,29.99,9,2,0,0.00
2014-9-24,69.6,55.6,46.0,55.7,49.1,44.1,94,80,54,30.54,30.34,7,1,0,0.00
2014-9-25,64.8,54.1,46.8,56.0,49.8,44.9,96,86,67,30.46,30.17,5,1,0,0.00
2014-9-26,75.2,58.6,45.1,60.4,52.3,43.2,94,81,56,30.17,30.05,7,1,0,0.00
2014-9-27,80.2,62.8,50.5,63.5,56.8,49.1,95,82,53,30.12,30.03,10,1,0,0.00
2014-9-28,86.5,66.1,53.1,66.2,59.3,51.7,95,81,49,30.08,29.89,5,0,0,0.00
2014-9-29,77.5,62.2,55.9,63.0,57.9,54.1,95,86,60,29.93,29.84,9,3,0,0.00
2014-9-30,59.9,57.0,54.7,56.3,54.5,53.3,95,91,87,29.96,29.90,6,3,0,0.00
2014-10-1,58.1,56.4,55.6,55.2,53.8,52.7,93,91,89,30.05,29.94,7,1,0,0.00
2014-10-2,66.6,56.7,50.4,58.5,53.1,48.2,93,88,71,30.10,29.99,9,3,0,0.00
2014-10-3,66.7,55.2,45.3,53.0,49.1,43.3,95,81,59,30.07,29.80,7,3,0,0.12
2014-10-4,58.1,54.7,51.4,56.7,53.3,49.6,96,95,93,29.79,29.40,10,4,0,2.43
2014-10-5,58.6,49.8,39.6,54.7,43.3,36.9,95,80,49,29.82,29.44,10,2,0,0.00
2014-10-6,64.9,51.7,36.5,50.0,42.7,34.1,93,74,44,30.00,29.82,9,3,0,0.00
2014-10-7,68.4,58.4,51.3,60.3,54.2,48.2,94,86,72,30.00,29.82,11,4,0,0.17
2014-10-8,66.7,58.7,50.4,58.9,50.9,39.9,93,76,53,29.82,29.53,12,4,0,0.61
2014-10-9,57.4,50.8,43.9,40.5,38.2,35.4,80,63,46,29.84,29.71,11,3,0,0.00
2014-10-10,56.7,47.3,39.2,40.8,38.6,35.7,89,73,52,30.02,29.84,12,2,0,0.00
2014-10-11,57.4,45.6,39.4,44.5,39.8,36.4,91,81,56,30.03,29.94,6,0,0,0.00
2014-10-12,57.6,45.2,35.8,43.4,38.1,33.4,91,77,48,30.19,30.03,9,1,0,0.00
2014-10-13,58.6,49.1,35.8,50.6,43.3,33.7,94,81,63,30.23,30.12,6,1,0,0.00
2014-10-14,74.7,62.9,53.1,64.0,57.6,48.8,91,83,68,30.12,30.01,7,2,0,0.00
2014-10-15,73.6,66.7,63.3,66.0,62.0,58.7,92,85,75,30.01,29.85,8,2,0,0.04
2014-10-16,66.6,64.1,57.6,64.8,62.5,56.2,96,95,93,29.84,29.54,8,3,0,2.31
2014-10-17,65.5,58.6,52.7,56.7,53.6,49.2,95,84,59,29.54,29.47,10,2,0,0.03
2014-10-18,59.7,54.3,49.8,55.8,51.3,47.3,95,90,84,29.51,29.38,9,1,0,0.20
2014-10-19,50.4,42.9,36.5,47.3,36.7,28.0,89,79,67,29.82,29.47,16,5,0,0.01
2014-10-20,52.9,42.0,32.4,41.4,33.5,26.1,84,72,53,29.89,29.80,8,1,0,0.00
2014-10-21,50.0,47.0,43.9,46.4,43.8,40.5,91,89,83,29.94,29.84,9,2,0,0.05
2014-10-22,49.8,47.7,46.0,46.7,44.7,43.2,91,89,87,30.01,29.82,16,5,0,0.67
2014-10-23,49.1,47.5,46.0,47.3,45.8,44.5,95,94,89,29.82,29.61,14,6,0,3.63
2014-10-24,46.9,45.0,43.7,45.5,42.8,41.4,95,92,88,29.65,29.58,13,4,0,0.08
2014-10-25,63.3,48.9,37.9,47.2,42.7,36.1,95,81,54,29.66,29.35,6,1,0,0.05
2014-10-26,50.7,45.4,42.3,45.7,41.6,38.4,95,87,69,29.56,29.28,8,1,0,0.04
2014-10-27,56.8,45.8,38.3,41.7,39.5,35.6,91,79,56,29.91,29.56,12,2,0,0.00
2014-10-28,56.1,47.7,38.1,48.8,43.4,35.4,93,85,73,29.94,29.81,8,2,0,0.02
2014-10-29,55.9,49.1,40.8,53.7,47.4,38.9,96,94,89,29.81,29.68,5,1,0,0.23
2014-10-30,51.3,43.3,37.2,44.7,38.8,34.6,95,85,69,29.87,29.73,12,2,0,0.00
2014-10-31,50.7,43.5,38.3,38.2,36.9,34.8,87,78,61,29.93,29.86,5,1,0,0.00
2014-11-1,38.8,36.9,34.0,36.9,34.5,31.6,94,91,84,29.88,29.76,8,3,0,0.40
2014-11-2,37.8,35.1,33.3,34.0,26.8,18.8,93,73,49,29.78,29.59,23,10,0,0.00
2014-11-3,48.6,37.6,30.7,29.3,20.2,11.3,80,51,22,29.93,29.68,19,3,0,0.00
2014-11-4,53.4,44.9,31.6,41.8,36.5,27.3,87,73,57,29.98,29.84,4,0,0,0.00
2014-11-5,55.9,46.1,34.9,44.5,36.0,30.8,87,69,41,29.99,29.79,10,1,0,0.00
2014-11-6,47.1,41.2,34.9,40.4,37.1,31.4,94,85,69,29.98,29.42,9,2,0,0.31
2014-11-7,40.5,37.0,33.6,38.6,33.6,25.6,94,87,72,29.63,29.34,19,4,0,0.02
2014-11-8,41.7,36.1,30.9,30.5,26.4,23.3,78,68,49,29.79,29.64,8,2,0,0.00
2014-11-9,50.4,40.2,29.8,35.0,31.0,26.7,88,70,54,29.87,29.69,7,1,0,0.00
2014-11-10,52.5,38.8,30.0,38.1,32.6,27.2,89,79,54,30.06,29.86,3,0,0,0.00
2014-11-11,59.4,45.6,32.0,48.8,40.6,29.9,93,83,68,30.04,29.83,8,1,0,0.00
2014-11-12,57.9,46.7,34.7,53.2,43.4,29.7,96,88,79,29.89,29.69,6,1,0,0.00
2014-11-13,42.4,36.4,29.8,31.0,28.1,25.6,90,73,51,29.93,29.79,7,1,0,0.00
2014-11-14,38.3,32.6,27.3,30.8,24.9,17.1,90,74,51,29.93,29.75,13,2,0,0.03
2014-11-15,35.1,27.4,21.6,18.8,16.3,12.7,81,64,39,30.16,29.93,11,2,0,0.00
2014-11-16,38.1,31.5,21.6,25.6,21.8,16.4,82,68,53,30.18,29.94,6,1,0,0.00
2014-11-17,35.4,33.5,31.3,33.8,30.6,24.5,95,89,66,29.94,29.27,8,3,0,1.27
2014-11-18,35.4,27.5,20.7,33.8,18.2,8.8,94,68,52,29.65,29.28,14,4,0,0.00
2014-11-19,31.6,24.4,19.9,16.9,13.1,8.8,72,62,48,29.92,29.65,11,4,0,0.00
2014-11-20,38.1,28.8,23.4,22.9,17.2,12.9,73,62,52,29.82,29.58,10,2,0,0.00
2014-11-21,27.7,23.0,17.1,17.2,12.1,7.6,76,63,48,30.20,29.72,19,4,0,0.00
2014-11-22,37.0,27.0,15.3,26.0,15.6,8.8,86,63,38,30.21,29.84,7,2,0,0.00
2014-11-23,49.8,40.5,35.2,43.3,36.1,25.7,92,84,64,29.99,29.85,6,1,0,0.00
2014-11-24,61.0,50.2,34.7,57.3,47.2,32.6,96,90,83,29.93,29.36,8,3,0,0.47
2014-11-25,56.5,47.3,32.5,52.7,35.1,26.6,89,64,43,29.96,29.51,11,3,0,0.00
2014-11-26,37.4,33.1,29.7,29.7,28.2,24.5,93,83,66,30.09,29.62,7,1,0,0.00
2014-11-27,29.8,27.7,25.0,27.5,24.6,22.2,92,88,84,29.87,29.62,0,0,0,0.00
2014-11-28,30.7,23.7,15.3,22.5,18.7,11.6,89,81,65,30.02,29.84,17,1,0,0.00
2014-11-29,29.3,21.0,10.0,20.9,15.3,6.7,88,79,59,30.14,30.02,8,2,0,0.00
2014-11-30,42.1,36.0,25.5,36.1,31.2,20.8,88,83,77,30.04,29.83,6,1,0,0.00
2014-12-1,47.5,38.1,31.1,42.3,34.2,24.7,95,86,77,30.33,29.82,11,2,0,0.02
2014-12-2,30.9,26.7,20.5,24.0,19.6,12.0,90,75,50,30.57,30.29,14,6,0,0.00
2014-12-3,36.0,31.9,25.0,34.8,30.0,22.5,96,93,83,30.27,29.70,16,2,0,0.15
2014-12-4,33.1,28.5,17.2,29.0,21.8,12.7,87,76,60,30.41,29.89,15,3,0,0.01
2014-12-5,28.6,22.5,12.6,23.0,17.3,9.2,87,80,59,30.53,30.31,9,3,0,0.00
2014-12-6,34.5,31.7,25.9,32.7,29.6,22.8,94,92,88,30.30,29.99,14,2,0,0.25
2014-12-7,32.2,21.5,9.7,29.3,15.1,2.2,91,76,63,30.57,30.15,14,7,0,0.00
2014-12-8,21.2,15.2,6.6,18.5,9.0,1.2,90,76,53,30.61,30.37,9,4,0,0.00
2014-12-9,35.6,30.1,21.2,34.3,28.4,18.5,95,93,89,30.37,29.52,13,5,0,1.64
2014-12-10,34.5,33.7,32.5,33.2,32.4,31.2,95,95,95,29.53,29.29,12,4,0,0.97
2014-12-11,32.9,31.1,28.8,31.6,29.6,27.3,95,94,93,29.60,29.28,5,0,0,0.09
2014-12-12,32.9,29.2,26.4,30.0,27.2,24.9,94,92,88,29.74,29.59,5,0,0,0.00
2014-12-13,32.7,29.1,25.3,29.3,26.5,23.3,92,90,87,29.73,29.64,14,2,0,0.00
2014-12-14,33.4,29.8,24.1,30.0,27.1,22.1,93,90,87,29.79,29.65,10,2,0,0.00
2014-12-15,31.3,28.6,27.0,28.4,25.7,24.2,92,89,87,30.00,29.78,17,4,0,0.00
2014-12-16,33.6,30.6,25.9,32.6,28.9,24.2,96,93,91,30.00,29.79,7,3,0,0.04
2014-12-17,38.1,34.6,33.1,36.5,33.4,32.1,96,95,94,29.79,29.56,4,0,0,1.06
2014-12-18,34.7,32.5,28.8,32.1,30.0,25.4,95,90,86,29.71,29.55,9,2,0,0.06
2014-12-19,28.8,25.8,20.5,25.2,21.9,17.3,88,85,81,30.02,29.71,17,5,0,0.00
2014-12-20,30.9,23.6,15.4,22.6,18.5,12.7,90,81,66,30.16,30.03,6,1,0,0.00
2014-12-21,32.5,29.6,25.9,28.0,26.1,22.6,90,86,81,30.22,30.15,3,0,0,0.00
2014-12-22,34.7,30.9,28.4,30.7,28.4,26.3,94,90,85,30.25,30.15,7,2,0,0.03
2014-12-23,34.5,33.1,31.6,33.5,31.8,30.1,96,95,94,30.16,30.05,9,4,0,0.98
2014-12-24,36.7,35.4,34.5,35.7,34.4,33.5,96,96,96,30.04,29.41,8,4,0,0.93
2014-12-25,43.9,39.2,34.9,43.1,34.4,29.9,97,83,71,29.79,29.25,12,2,0,0.26
2014-12-26,41.2,35.6,28.9,32.5,29.8,25.8,89,79,70,30.01,29.79,9,2,0,0.00
2014-12-27,42.6,32.9,27.9,35.5,29.8,25.4,94,88,72,30.05,29.80,5,0,0,0.00
2014-12-28,43.3,37.9,32.4,40.9,34.1,24.1,95,86,71,29.83,29.60,8,1,0,0.29
2014-12-29,34.2,27.1,18.1,24.7,18.3,9.9,82,70,57,30.07,29.82,17,2,0,0.00
2014-12-30,21.0,15.7,9.3,10.6,5.9,0.0,79,66,39,30.18,30.06,10,2,0,0.00
2014-12-31,22.1,14.5,7.2,13.5,7.2,2.4,85,73,50,30.12,29.86,12,2,0,0.00
2015-1-1,27.0,20.3,12.9,12.8,10.1,6.8,78,65,51,29.85,29.67,10,2,0,0.00
2015-1-2,31.1,25.8,16.7,23.0,15.3,8.3,81,64,51,30.29,29.69,19,4,0,0.00